Location: Santa Maria di Sala
(45.5070°N, 12.0300°E)
Time: 07:50:22
(UTC+01:00)

N. Korean satellite - Visible Passes

Search period start: 28 January 2022 00:00
Search period end: 07 February 2022 00:00
Orbit: 447 x 490 km, 97.3° (Epoch: 27 January)

Date Brightness Start Highest point End Pass type
(mag) Time Alt. Az. Time Alt. Az. Time Alt. Az.
28 Jan 10.0 04:17:42 10° ENE 04:18:38 11° E 04:19:34 10° ESE visible
28 Jan 6.6 05:48:32 10° N 05:52:07 56° WNW 05:53:41 30° SW visible
29 Jan 7.0 05:19:17 10° NNE 05:22:54 61° E 05:24:39 28° S visible
29 Jan 8.5 06:54:22 10° NW 06:55:32 11° WNW 06:56:42 10° W visible
30 Jan 8.7 04:50:26 10° NE 04:53:33 26° E 04:55:39 16° SE visible
30 Jan 7.8 06:23:42 10° NNW 06:26:34 22° WNW 06:29:26 10° WSW visible
31 Jan 9.8 04:22:27 10° ENE 04:24:04 12° E 04:25:40 10° ESE visible
31 Jan 6.7 05:53:57 10° N 05:57:28 48° WNW 06:00:47 11° SSW visible
01 Feb 6.7 05:24:35 10° NNE 05:28:14 72° E 05:31:50 10° S visible
02 Feb 8.4 04:55:37 10° NNE 04:58:52 30° E 05:02:05 10° SSE visible
02 Feb 7.9 06:29:07 10° NNW 06:31:48 20° WNW 06:34:28 10° WSW visible
03 Feb 9.7 04:27:19 10° ENE 04:29:21 14° E 04:31:21 10° SE visible
03 Feb 6.9 05:59:15 10° N 06:02:41 41° WNW 06:06:05 10° SW visible
04 Feb 6.5 05:29:47 10° NNE 05:33:26 84° ESE 05:37:01 10° SSW visible
05 Feb 8.2 05:00:42 10° NNE 05:04:03 35° E 05:07:21 10° SSE visible
05 Feb 8.1 06:34:28 10° NNW 06:36:55 17° WNW 06:39:20 10° WSW visible
06 Feb 9.5 04:32:11 10° NE 04:34:31 16° E 04:36:49 10° SE visible
06 Feb 7.1 06:04:27 10° N 06:07:47 35° WNW 06:11:04 10° SW visible
